Location: Unspecified
(49.8214°N, 0.0000°E)
Time: 18:19:15
(UTC+00:00)

Sep Motor Cover - Visible Passes

Search period start: 04 April 2026 00:00
Search period end: 14 April 2026 00:00
Orbit: 839 x 1133 km, 71.0° (Epoch: 29 March)

Date Brightness Start Highest point End Pass type
(mag) Time Alt. Az. Time Alt. Az. Time Alt. Az.
4 Apr ? 01:06:26 63° NNE 01:06:26 63° NNE 01:11:45 10° NNE visible
4 Apr ? 02:51:17 21° WNW 02:53:31 25° NW 02:58:46 10° NNE visible
4 Apr ? 04:41:09 10° NNW 04:43:26 12° N 04:45:48 10° N visible
4 Apr ? 23:49:32 26° ENE 23:49:32 26° ENE 23:52:51 10° NE visible
5 Apr ? 01:34:23 53° NW 01:34:23 53° NW 01:40:34 10° NNE visible
5 Apr ? 03:19:14 10° WNW 03:23:10 18° NNW 03:27:25 10° NNE visible
6 Apr ? 00:17:27 46° ENE 00:17:27 46° ENE 00:22:04 10° NNE visible
6 Apr ? 02:02:18 31° WNW 02:03:28 33° NW 02:09:17 10° NNE visible
6 Apr ? 03:50:01 10° NW 03:53:02 13° NNW 03:56:10 10° NNE visible
6 Apr ? 23:00:30 18° ENE 23:00:30 18° ENE 23:02:42 10° NE visible
7 Apr ? 00:45:21 65° N 00:45:21 65° N 00:51:00 10° NNE visible
7 Apr ? 02:30:12 17° WNW 02:32:58 22° NW 02:37:57 10° NNE visible
7 Apr ? 04:20:55 10° NNW 04:23:06 12° N 04:25:17 10° NNE visible
7 Apr ? 23:28:23 32° ENE 23:28:23 32° ENE 23:32:16 10° NE visible
8 Apr ? 01:13:13 44° WNW 01:13:33 45° NW 01:19:46 10° NNE visible
8 Apr ? 02:58:55 10° WNW 03:02:43 16° NNW 03:06:38 10° NNE visible
8 Apr ? 22:11:22 11° ENE 22:11:22 11° ENE 22:12:01 10° ENE visible
8 Apr ? 23:56:13 57° NE 23:56:13 57° NE 00:01:22 10° NNE visible
9 Apr ? 01:41:03 25° WNW 01:42:52 29° NW 01:48:28 10° NNE visible
9 Apr ? 03:29:53 10° NW 03:32:40 13° NNW 03:35:30 10° NNE visible
9 Apr ? 22:39:10 23° ENE 22:39:10 23° ENE 22:42:17 10° NE visible
10 Apr ? 00:24:01 62° NW 00:24:01 62° NW 00:30:14 10° NNE visible
10 Apr ? 02:08:51 13° WNW 02:12:27 20° NNW 02:17:10 10° NNE visible
10 Apr ? 04:00:35 10° NNW 04:02:44 12° N 04:04:55 10° NNE visible
10 Apr ? 23:06:56 42° ENE 23:06:56 42° ENE 23:11:38 10° NE visible
11 Apr ? 00:51:47 35° WNW 00:52:53 38° NW 00:58:59 10° NNE visible
11 Apr ? 02:38:47 10° NW 02:42:17 15° NNW 02:45:54 10° NNE visible
11 Apr ? 04:30:18 10° NNW 04:32:51 12° N 04:35:26 10° NNE visible
11 Apr ? 21:49:49 16° ENE 21:49:49 16° ENE 21:51:58 10° NE visible
11 Apr ? 23:34:39 75° NNE 23:34:39 75° NNE 23:40:38 10° NNE visible
12 Apr ? 01:19:29 19° WNW 01:22:17 25° NW 01:27:41 10° NNE visible
12 Apr ? 03:09:43 10° NNW 03:12:17 12° N 03:14:55 10° NNE visible
12 Apr ? 22:17:29 31° ENE 22:17:29 31° ENE 22:21:45 10° NE visible
13 Apr ? 00:02:18 50° WNW 00:03:00 52° NW 00:09:28 10° NNE visible
13 Apr ? 01:47:46 10° WNW 01:51:58 18° NNW 01:56:23 10° NNE visible
13 Apr ? 03:40:08 10° NNW 03:42:24 12° N 03:44:43 10° NNE visible
13 Apr ? 21:00:15 11° ENE 21:00:15 11° ENE 21:00:42 10° ENE visible
13 Apr ? 22:45:04 61° E 22:45:04 61° E 22:50:57 10° NNE visible
